Regional Weather Roundup
Issued by NWS

Home | Current Version | Previous Version | Text Only | Print | Product List | Glossary Off
Versions: 1 2 3 4 5 6 7 8 9 10 11 12 13 14 15 16 17 18 19 20 21 22 23 24 25 26 27 28 29 30 31 32 33 34 35 36 37 38 39 40 41 42 43 44 45 46 47 48 49 50

369
ASUS45 KBOI 260110
RWRID

IDAHO REGIONAL WEATHER ROUNDUP
NATIONAL WEATHER SERVICE BOISE ID
700 PM MDT MON SEP 25 2017

NOTE: "FAIR" INDICATES FEW OR NO CLOUDS BELOW 12000 FEET
WITH NO SIGNIFICANT WEATHER AND/OR OBSTRUCTIONS TO VISIBILITY

IDZ012-014-260200-
SOUTHWEST IDAHO


CITY           SKY/WX    TMP DP  RH WIND       PRES   REMARKS
BOISE          CLEAR     64  35  34 W7        30.06S
CALDWELL       CLEAR     66  37  34 W7        30.06S
MOUNTAIN HOME  CLEAR     64  30  28 W5        30.06S
$$

IDZ016-017-260200-
SOUTHCENTRAL IDAHO


CITY           SKY/WX    TMP DP  RH WIND       PRES   REMARKS
BURLEY         FAIR      56  32  40 W3        30.09S
JEROME         CLEAR     57  33  40 SW3       30.10S
TWIN FALLS     CLEAR     55  33  43 N3        30.10R
$$

IDZ019>023-260200-
SOUTHEAST IDAHO


CITY           SKY/WX    TMP DP  RH WIND       PRES   REMARKS
IDAHO FALLS    CLOUDY    53  31  42 S6        30.12F
POCATELLO      CLOUDY    55  31  39 CALM      30.12S
REXBURG        CLOUDY    52  28  39 SW7       30.11S
$$

IDZ006-010-011-018-031-032-260200-
CENTRAL IDAHO MOUNTAINS


CITY           SKY/WX    TMP DP  RH WIND       PRES   REMARKS
MCCALL         CLOUDY    55  34  45 N8        30.10S
HAILEY         MOCLDY    52  36  54 SE9       30.12S
STANLEY          N/A     50  27  40 CALM      30.15S
SALMON         CLOUDY    52  45  77 S5        30.13S
CHALLIS        CLOUDY    53  34  48 CALM      30.11S
$$

IDZ002-004-006-007-026-260200-
NORTHERN IDAHO


CITY           SKY/WX    TMP DP  RH WIND       PRES   REMARKS
LEWISTON       CLOUDY    70  44  39 NE3       30.03S
LOWELL           N/A     58  51  78 CALM      30.08S
COEUR D`ALENE  CLOUDY    62  46  55 E6        30.06S
MULLAN PASS    CLOUDY    44  38  79 VRB3      30.14R
$$




USA.gov is the U.S. government's official web portal to all federal, state and local government web resources and services.